GFSSW_850_rhum_336.txt.gz
RH
19 19 18 17 16 14 13 11 10 9 7 6 6 5 5 5 5 6 10 14 32 34 42 69 70 70 74 59 58 46 27 29 29 28 36 33 33 36 39 39 46 46 45 63 80
22 20 19 19 16 14 14 14 12 10 9 7 5 5 5 4 5 6 10 13 30 33 55 61 62 65 51 47 44 33 24 26 24 24 28 31 32 37 36 38 47 58 68 75 77
22 20 19 17 18 17 15 15 14 12 11 8 6 5 5 4 8 10 10 19 30 34 56 53 51 52 40 39 33 30 26 22 22 25 26 29 32 34 32 34 36 47 59 66 67
21 19 18 17 15 17 17 15 14 13 12 10 7 5 5 4 13 14 10 22 34 45 54 58 52 45 31 32 29 30 26 24 26 29 29 29 32 31 35 31 35 46 54 60 59
20 19 18 17 16 15 16 17 15 14 13 11 8 6 5 8 8 14 10 24 35 53 48 52 45 37 28 28 30 29 26 28 28 29 30 32 30 28 34 34 40 49 55 56 56
19 18 17 17 16 15 14 16 15 14 14 12 8 7 9 6 6 12 10 27 49 48 44 46 33 33 30 30 29 28 27 27 28 28 30 29 29 27 35 37 43 49 52 54 57
20 20 18 16 15 14 14 14 15 14 13 12 10 9 14 6 6 12 27 39 47 45 42 44 41 37 30 28 32 28 30 28 28 30 30 29 34 27 31 37 41 45 48 52 58
13 14 16 16 15 14 14 13 14 14 13 12 10 11 6 5 16 30 52 49 52 47 44 42 38 34 32 30 29 28 27 35 31 30 32 30 33 28 32 37 38 41 47 52 59
8 9 10 13 14 14 13 13 13 12 12 12 14 16 5 4 18 46 45 43 50 49 45 41 36 32 32 27 28 30 35 33 35 30 32 30 32 28 33 35 36 40 46 51 58
8 7 7 9 13 14 13 17 19 16 13 14 14 17 9 6 10 41 43 39 39 39 36 36 30 31 26 38 40 38 37 42 36 31 31 32 32 28 32 31 33 36 40 47 52
8 7 7 7 12 13 18 28 32 34 26 13 12 10 10 14 17 32 42 38 35 32 22 27 28 31 31 25 26 29 36 31 31 38 36 36 34 36 30 30 30 33 35 42 48
9 8 7 6 12 13 28 29 24 23 16 17 19 18 16 15 9 21 35 25 28 21 18 26 26 24 24 28 25 26 31 36 46 50 40 46 41 31 32 31 28 30 37 43 47
11 9 7 6 12 18 26 24 20 21 17 16 18 16 14 14 8 20 24 21 19 19 20 21 21 23 24 25 27 25 29 30 34 41 35 37 44 35 27 31 33 30 34 48 44
12 10 8 6 14 21 24 20 19 21 14 12 14 15 18 11 9 10 23 20 18 18 18 18 22 24 24 24 26 29 28 30 40 42 49 35 46 28 26 29 30 30 34 37 46
12 10 8 9 14 22 23 21 20 23 17 10 14 18 16 9 7 10 17 19 18 19 19 20 21 24 23 22 23 31 28 30 34 39 38 37 41 27 24 28 28 30 30 32 38
12 9 9 13 10 19 21 18 22 18 17 14 13 15 16 10 6 10 16 12 13 16 18 16 19 18 20 26 26 30 32 36 36 36 46 33 34 26 26 25 24 24 30 32 33
12 10 22 18 24 17 21 22 17 16 13 13 12 13 12 9 6 7 10 12 14 19 21 18 19 24 26 32 32 30 26 32 38 48 43 31 35 28 23 24 21 23 27 30 34
12 22 28 21 16 21 22 15 20 14 12 10 9 11 13 9 6 7 7 10 9 11 12 18 23 26 24 23 26 27 24 31 38 43 30 32 32 24 21 23 23 21 23 28 34
13 30 27 24 18 20 21 14 13 16 12 12 11 11 12 10 7 7 7 6 7 8 11 12 14 17 21 21 20 29 30 25 24 23 32 26 24 20 20 22 23 21 21 28 32
14 37 33 18 21 24 15 12 16 14 13 11 13 10 12 10 9 8 7 6 5 6 6 8 10 13 20 27 28 24 22 27 27 37 44 27 28 24 22 23 23 21 22 26 34
20 28 32 23 21 18 14 10 15 14 15 13 12 12 11 9 9 8 7 9 6 6 6 5 7 10 17 27 20 28 26 25 22 24 34 31 28 21 24 24 23 22 23 28 34
36 19 30 26 18 15 12 12 19 14 15 14 12 12 11 10 9 8 7 8 16 6 8 6 6 10 22 13 13 13 18 21 25 36 26 28 27 17 21 20 21 19 23 28 34
32 31 31 30 18 15 16 13 14 13 15 15 14 15 15 13 14 10 9 18 19 11 8 6 8 10 10 20 22 21 22 20 17 21 27 30 26 19 20 22 21 19 27 33 36
36 21 25 27 26 18 16 15 14 16 16 17 16 17 16 15 15 18 15 16 19 18 28 18 7 7 10 11 13 21 21 23 19 20 24 24 21 19 19 20 21 23 29 33 36
36 29 43 22 22 19 18 17 15 16 16 18 18 17 16 16 16 17 16 16 19 21 21 11 9 7 6 6 7 12 18 22 22 17 18 16 16 16 17 18 20 23 30 33 34
39 37 38 30 30 25 28 18 16 16 19 17 18 17 18 17 20 18 16 17 17 16 17 12 11 11 11 7 6 7 8 10 12 16 16 15 15 11 16 18 17 20 29 30 29
56 53 46 33 25 24 20 20 19 21 22 21 19 18 18 23 23 20 19 17 16 18 16 15 12 15 13 9 9 9 8 8 9 12 16 17 13 11 16 20 17 18 25 28 24

GFSSW_850_rhum_339.txt.gz
RH
21 20 19 19 16 15 14 13 12 9 7 6 5 5 5 5 5 6 15 15 24 34 39 62 56 53 54 43 37 30 36 26 25 25 27 25 26 29 28 29 32 34 38 48 70
23 21 20 19 18 17 15 15 14 12 10 7 5 5 5 5 5 17 15 13 16 33 48 49 47 47 38 31 27 30 25 21 18 20 23 24 25 28 27 31 36 43 50 52 59
22 20 19 18 17 17 17 15 15 14 12 9 6 5 5 4 12 12 13 13 21 34 42 41 39 40 32 26 22 35 23 17 18 20 21 23 25 26 25 27 31 38 45 48 50
18 18 17 17 16 15 16 17 15 14 13 11 7 5 5 5 16 22 12 20 27 36 40 40 39 35 28 32 21 33 18 18 19 23 21 22 24 24 29 25 31 37 40 42 42
17 16 16 16 16 15 14 15 16 15 14 12 9 5 5 14 12 12 12 22 33 49 38 39 37 32 27 24 23 23 20 20 21 22 23 24 23 24 27 27 31 36 39 38 39
18 17 16 16 14 14 14 13 15 15 14 13 10 7 7 9 19 12 13 21 46 43 37 37 30 28 24 23 23 22 20 20 22 22 23 22 22 24 26 28 32 36 36 37 39
14 15 16 16 15 14 13 12 13 15 14 13 11 8 19 8 16 35 44 40 36 37 33 33 33 29 23 22 24 22 23 20 21 22 22 23 25 24 26 28 31 33 34 36 40
10 10 12 13 14 14 13 12 13 14 14 12 11 11 11 9 18 32 42 38 32 34 33 34 36 29 24 24 23 24 24 34 25 23 24 31 69 22 25 26 29 30 33 36 41
8 8 8 9 12 13 13 12 13 13 13 12 13 22 6 6 14 28 36 31 31 35 35 32 30 26 24 24 29 25 71 69 76 24 24 26 81 35 24 26 27 29 32 37 44
8 7 7 7 10 13 13 15 18 15 12 12 31 16 10 5 8 29 33 28 30 33 32 29 26 23 21 24 62 74 32 34 32 55 25 26 30 43 24 26 28 31 34 37 39
9 8 7 6 8 12 14 30 30 30 28 13 11 9 6 4 8 27 30 27 29 28 26 23 23 26 22 22 26 23 25 32 30 27 28 31 31 39 70 57 29 28 33 35 38
10 9 8 6 7 12 21 32 20 19 15 15 12 9 9 9 9 18 28 26 25 24 21 18 22 27 38 23 21 22 29 45 24 32 32 28 28 26 36 30 31 27 31 31 35
11 10 8 6 8 12 31 20 20 19 13 11 11 12 11 10 5 11 26 24 22 22 18 18 16 21 34 22 23 35 34 51 26 30 28 29 34 29 23 23 26 29 27 28 32
11 10 9 7 15 22 22 22 21 20 14 11 11 10 10 9 6 5 20 21 16 19 15 15 13 22 30 22 26 29 29 21 26 31 44 30 40 37 28 23 23 24 32 28 34
11 11 9 7 25 19 20 22 20 18 18 9 8 10 10 8 5 6 14 17 16 15 14 15 13 18 24 18 20 30 45 23 22 27 29 34 42 46 26 25 22 23 23 26 30
11 11 8 11 10 21 22 21 19 16 16 10 10 11 10 8 5 6 11 15 13 14 13 12 11 13 15 14 22 22 22 22 23 29 46 67 32 46 47 19 19 20 21 22 27
11 10 19 19 20 18 22 18 15 16 10 11 10 9 10 9 6 6 8 14 16 18 18 14 15 13 16 20 20 22 22 34 58 84 94 68 24 26 17 17 15 17 21 22 27
11 13 26 22 28 23 22 16 19 9 9 8 8 8 10 8 7 7 8 10 11 9 12 17 17 14 16 18 21 21 20 62 56 34 65 57 29 25 17 17 16 17 20 22 25
12 26 37 30 26 26 19 16 11 10 8 8 8 9 9 8 6 6 7 7 7 7 10 12 14 10 13 15 15 21 22 20 29 17 26 60 48 21 17 17 17 16 19 21 24
14 26 25 26 25 23 17 17 8 10 10 9 10 8 10 8 8 6 7 5 5 6 6 8 10 9 12 14 16 16 20 26 33 38 49 47 48 86 22 20 17 16 17 20 24
19 21 26 23 20 16 15 10 7 10 11 10 10 10 8 8 8 7 7 5 4 4 5 6 7 8 9 16 18 19 21 18 25 20 30 26 57 62 26 18 18 16 16 18 22
26 14 26 21 16 13 12 9 11 9 11 10 11 10 10 8 8 8 7 6 5 4 5 5 6 7 6 8 12 12 14 13 19 24 51 37 30 29 15 16 17 16 18 18 23
24 16 24 22 16 12 10 10 10 8 10 10 10 10 9 10 10 7 6 11 8 6 6 5 6 7 6 8 11 13 10 10 11 39 85 92 34 22 15 17 17 16 18 20 23
26 15 16 19 15 14 12 12 10 10 10 12 12 12 12 12 10 10 8 12 11 7 18 12 6 6 7 8 10 17 14 11 13 22 28 46 26 50 17 17 16 16 20 23 26
23 17 28 16 13 12 10 11 11 11 10 11 13 12 12 13 11 12 11 12 12 14 14 8 8 6 5 5 5 7 12 12 16 17 22 19 18 14 16 16 16 18 22 23 27
30 28 26 17 18 20 20 14 12 9 12 12 12 11 12 15 14 13 12 12 13 12 11 7 9 7 8 5 5 6 6 11 12 15 16 14 14 10 11 16 16 18 21 24 24
38 34 29 19 16 14 13 13 12 11 14 14 14 12 13 14 18 16 13 12 12 13 11 10 8 9 11 8 7 8 6 6 8 12 15 15 12 11 13 15 16 17 20 22 21

GFSSW_850_rhum_342.txt.gz
RH
23 22 20 19 19 17 15 14 12 10 8 7 5 5 5 5 6 6 9 16 19 32 34 50 60 50 46 43 48 48 34 30 27 24 24 22 23 24 24 27 34 41 55 65 70
23 22 20 19 18 17 17 15 14 12 10 8 6 5 5 5 5 8 17 16 15 24 37 50 44 41 39 37 40 54 43 28 19 18 20 21 23 24 25 28 35 40 50 63 70
18 18 18 17 16 15 16 17 15 14 12 10 8 5 5 5 10 12 14 14 14 30 40 39 36 39 72 43 35 37 21 15 19 19 19 21 21 23 22 27 31 36 39 47 68
17 17 16 16 15 14 14 14 16 14 13 12 9 6 5 5 19 18 14 13 19 30 45 34 34 48 64 43 28 29 16 16 17 19 18 20 20 24 26 26 30 34 35 40 48
18 17 16 15 15 14 13 12 14 15 14 13 11 7 5 14 12 18 13 19 25 31 45 33 33 36 40 24 23 25 20 17 18 19 20 20 21 22 23 27 30 32 32 35 38
15 15 15 15 14 14 13 12 12 14 14 13 12 8 6 14 22 16 13 19 27 42 38 31 36 32 29 24 33 31 23 18 19 20 20 19 20 22 23 26 30 30 31 33 35
11 11 12 12 13 13 13 12 11 12 14 13 12 9 22 10 18 20 13 19 37 41 32 30 30 25 25 24 26 24 27 19 22 21 21 21 23 26 23 26 27 30 32 36 39
8 8 9 9 11 12 12 12 10 12 14 13 12 10 16 8 10 31 34 36 34 33 31 31 30 28 30 23 20 28 51 60 44 46 26 24 39 32 24 24 26 29 34 35 41
7 7 7 8 8 11 12 11 11 13 13 12 12 16 12 8 10 15 29 30 30 28 28 32 28 30 31 29 30 41 60 64 73 48 50 37 43 30 33 29 25 28 29 32 39
8 7 7 7 7 10 12 12 17 14 12 12 28 25 12 7 5 11 24 28 26 26 27 28 24 29 39 35 39 68 55 54 60 61 50 42 39 33 31 44 41 43 28 33 38
9 8 8 7 6 9 11 27 26 30 29 14 13 13 6 7 4 12 24 26 23 24 26 22 24 24 24 27 25 32 36 35 39 33 34 31 39 33 35 40 38 42 46 34 38
10 9 9 7 6 9 12 34 20 17 17 20 13 11 7 4 4 14 24 24 22 24 21 21 22 19 23 22 26 26 33 36 26 36 32 30 33 44 44 31 30 38 54 35 38
10 10 9 7 6 11 11 26 19 16 14 11 12 10 8 6 4 8 22 23 20 22 20 20 22 21 23 28 26 28 29 35 32 27 27 27 30 47 48 34 30 34 42 36 42
10 10 10 7 16 25 20 20 18 16 14 9 11 10 9 8 7 5 16 21 19 21 18 17 25 52 26 28 30 33 25 26 30 27 34 25 39 32 38 45 34 34 31 34 46
9 9 10 7 20 22 17 17 16 14 22 7 9 8 8 8 6 5 8 18 20 18 16 16 14 16 21 19 17 27 24 28 22 29 33 74 68 64 51 31 23 28 29 33 31
10 9 10 8 7 15 18 17 15 16 18 9 9 8 8 8 7 4 4 14 16 15 13 14 10 10 15 15 18 28 42 41 43 53 58 70 74 76 56 51 39 20 27 34 48
10 9 9 17 22 14 13 16 16 18 8 10 10 9 8 9 8 5 5 9 18 19 18 14 12 12 13 14 16 24 42 58 75 60 77 49 54 55 44 29 32 21 29 34 33
9 9 13 18 25 22 16 15 22 10 10 7 8 8 10 8 8 5 6 9 12 13 14 16 16 13 15 12 22 23 18 31 52 53 58 62 68 74 55 28 13 16 19 27 29
9 15 22 25 16 19 16 19 16 11 8 7 7 8 9 7 7 6 6 7 8 10 15 13 13 9 14 12 13 18 29 26 30 28 32 66 52 59 40 25 14 15 18 24 25
9 29 23 22 22 19 18 20 10 7 9 8 10 7 9 8 8 7 7 6 6 7 8 9 12 12 14 14 12 13 21 46 34 40 44 61 77 87 60 32 15 16 18 19 23
14 24 20 18 19 16 18 14 10 7 8 10 9 9 8 8 8 8 6 5 5 5 7 6 7 8 9 14 13 16 22 23 19 23 31 50 87 44 47 33 24 15 16 18 23
29 19 22 18 16 14 15 12 9 7 8 8 8 10 10 7 7 8 7 5 4 4 5 5 6 9 8 7 9 10 12 13 17 19 30 33 40 69 48 27 23 14 15 19 23
33 16 21 18 15 12 10 9 8 8 8 9 8 8 8 10 11 8 7 5 5 4 5 5 7 8 8 6 4 9 11 11 11 17 48 38 42 48 38 28 16 14 15 20 26
35 14 16 19 16 12 12 11 10 8 8 7 9 8 9 11 9 10 7 9 7 5 9 7 6 6 8 7 5 8 10 11 11 13 47 37 72 60 51 44 19 15 19 21 22
37 14 20 19 14 12 10 12 11 10 8 8 10 11 11 13 11 10 9 10 10 12 8 6 8 7 5 5 4 5 8 12 13 11 25 40 56 70 55 47 27 17 19 21 22
25 27 25 23 18 15 16 14 11 10 9 10 10 10 10 12 11 16 11 10 11 10 10 7 10 8 8 6 5 5 5 6 9 10 11 21 37 34 40 48 15 17 20 22 23
35 33 28 18 13 12 13 13 11 11 10 9 11 14 10 15 16 15 13 10 9 10 10 9 9 9 11 7 7 8 6 5 6 9 9 15 31 49 34 14 15 17 20 22 22

GFSSW_850_rhum_345.txt.gz
RH
22 22 20 19 18 17 16 14 13 11 9 7 6 5 5 5 6 6 10 15 16 24 31 41 47 60 83 65 54 81 79 38 30 30 28 23 24 24 37 53 58 54 64 78 78
16 17 17 17 16 16 15 16 14 13 12 9 7 5 5 4 5 7 14 16 17 16 23 44 57 58 77 75 95 72 55 31 21 23 24 23 24 25 35 53 64 67 64 75 72
16 15 14 14 14 14 14 14 15 14 13 12 9 6 5 4 5 14 14 17 16 14 23 46 54 52 77 77 69 41 40 22 20 19 22 22 23 24 33 42 65 68 67 66 65
17 16 15 14 13 13 12 12 13 15 14 13 11 8 5 5 22 20 14 14 14 16 29 42 46 52 72 51 39 41 20 17 18 18 21 21 23 26 30 36 44 54 53 60 69
15 15 15 14 14 12 12 11 11 13 14 13 12 10 6 11 6 15 16 14 15 26 32 41 44 52 66 56 32 36 28 18 19 20 20 20 24 27 29 33 34 45 51 56 64
12 12 13 13 13 13 12 11 10 10 14 13 13 11 7 19 8 11 16 14 20 27 33 40 37 37 47 42 38 24 30 26 30 36 19 22 23 25 29 31 32 33 42 56 60
8 9 10 10 11 12 12 11 10 10 13 13 13 12 10 5 21 22 18 14 23 26 28 38 35 46 34 47 38 30 31 28 39 37 31 30 33 29 28 30 30 33 37 43 51
7 7 8 8 9 10 12 11 10 9 12 13 13 12 9 3 8 24 24 15 24 37 37 39 34 41 32 41 39 40 53 54 37 38 39 38 42 32 29 29 29 33 35 40 41
8 7 7 7 8 9 11 11 10 11 14 13 13 12 22 4 8 11 28 32 33 33 33 33 29 34 36 42 48 52 66 60 52 37 42 43 52 34 32 30 34 36 38 46 44
9 8 8 8 7 8 11 11 17 14 13 12 21 30 13 10 8 10 18 29 30 28 29 32 33 34 38 47 62 63 58 48 56 43 43 43 51 36 31 36 40 34 39 46 49
9 8 8 8 7 7 11 16 27 17 23 16 13 15 13 7 7 7 13 25 28 26 32 30 35 38 31 43 44 38 48 54 48 39 43 45 48 43 32 39 37 39 38 50 51
10 8 8 8 7 6 10 12 29 18 21 18 11 17 12 11 7 5 9 21 27 31 25 28 33 26 28 32 31 42 46 55 44 36 46 48 46 42 36 43 39 37 42 43 48
18 8 8 8 6 8 11 8 22 17 17 15 16 13 13 11 7 4 6 22 26 29 26 30 28 25 30 36 30 30 41 48 46 38 61 72 80 56 60 59 43 39 40 43 35
26 12 8 8 9 24 22 14 18 16 25 17 15 14 12 8 7 4 11 23 25 28 24 24 25 31 38 39 42 37 32 33 33 39 53 66 89 79 81 80 62 40 43 33 45
29 18 8 9 9 23 20 17 16 16 34 11 13 10 10 8 7 7 6 20 25 24 24 25 30 37 38 30 30 33 25 30 42 46 51 64 66 79 83 77 61 55 36 46 45
28 22 8 10 6 16 18 16 15 25 28 11 11 11 10 9 8 8 6 6 19 22 21 21 15 29 36 28 33 26 31 49 66 71 73 75 67 68 64 54 50 47 40 44 40
25 22 8 10 10 20 15 14 25 30 12 12 12 10 10 11 10 9 8 7 22 29 29 22 19 14 13 29 32 30 41 66 75 84 83 74 59 62 54 52 52 49 49 40 34
22 14 7 6 13 20 17 20 33 17 14 8 10 10 11 10 10 9 8 7 14 19 25 28 26 16 12 22 36 42 58 59 64 66 71 65 72 62 49 47 54 38 40 40 33
18 12 9 12 18 22 22 31 27 19 10 10 10 13 12 10 10 10 10 8 7 13 21 24 20 12 18 19 26 43 47 32 35 39 57 74 69 57 48 52 50 44 43 43 40
12 11 21 23 19 20 27 30 19 12 11 10 13 9 13 11 11 11 10 7 7 8 12 16 20 13 24 16 20 23 20 40 70 74 77 91 84 78 52 44 39 54 32 38 38
18 30 22 27 21 20 29 23 16 12 10 9 13 13 12 12 10 10 10 8 6 7 9 12 13 14 19 28 38 22 36 36 74 77 76 78 84 64 50 45 44 48 36 32 39
15 34 20 17 23 20 22 17 13 12 11 8 9 12 12 12 14 11 10 9 5 6 8 10 13 15 11 10 15 15 24 34 41 39 39 46 74 46 52 43 47 38 35 30 32
33 31 20 17 27 20 16 14 12 11 10 9 10 9 9 12 16 16 11 6 5 6 7 8 12 13 12 9 17 17 16 16 17 24 43 41 53 48 53 41 42 42 30 27 33
50 35 19 19 18 20 19 17 15 10 9 8 11 10 13 16 13 16 14 8 6 11 7 7 8 11 13 14 11 11 12 13 15 22 54 41 44 49 46 59 40 44 31 30 33
48 32 28 32 24 22 18 17 16 14 10 8 10 11 15 20 19 17 14 11 10 10 8 8 10 9 10 9 7 7 7 8 16 18 39 47 56 46 35 52 48 45 35 31 36
42 36 33 31 18 19 19 19 17 14 13 13 14 10 12 17 25 27 21 20 16 12 10 9 15 11 14 11 9 8 7 6 9 13 37 43 44 39 34 29 38 33 34 31 34
47 42 37 31 23 20 18 16 14 15 15 12 15 16 18 22 18 17 17 14 14 15 15 13 16 17 18 13 12 13 10 8 8 8 35 45 46 48 43 33 36 36 33 25 26